Rensselaer, IN

4:11 PM CST on February 24, 2017 (GMT -0600)
Jasper County

Weather History for KRZL - July, 2013

Change the Weather History Date:

Monday, July 1, 2013

  Actual Average (KIKK) Record (KIKK)
Temperature  
Mean Temperature 68 °F -  
Max Temperature 75 °F 82 °F 99 °F (1991)
Min Temperature 60 °F 60 °F 49 °F (1982)
Cooling Degree Days 2    
Growing Degree Days 18 (Base 50)    
Moisture  
Dew Point 55 °F    
Average Humidity 66    
Maximum Humidity 94    
Minimum Humidity 52    
Precipitation  
Precipitation 0.00 in - - ()
Sea Level Pressure  
Sea Level Pressure 29.98 in    
Wind  
Wind Speed 10 mph (NNE)    
Max Wind Speed 22 mph    
Max Gust Speed 29 mph    
Visibility 10 miles    
Events Rain    
Averages and records for this station are not official NWS values.
T = Trace of Precipitation, MM = Missing Value Source: NWS Daily Summary

Daily Weather History Graph

Daily Weather History Graph

Search for Another Location

Airport or City:

Trip Planner

Search our weather history database for the weather conditions in past years. The results will help you decide how hot, cold, wet, or windy it might be!

Date:

Astronomy

Jul. 01, 2013 Rise Set
Actual Time 5:20 AM CDT 8:24 PM CDT
Civil Twilight 4:47 AM CDT 8:57 PM CDT
Nautical Twilight 4:04 AM CDT 9:40 PM CDT
Astronomical Twilight 3:14 AM CDT 10:30 PM CDT
Moon 12:52 AM CDT (7/1) 2:37 PM CDT (7/1)
Length of Visible Light 16h 10m
Length of Day
15h 03m
Waning Crescent, 35% of the Moon is Illuminated
Jul 1
Waning Crescent
Jul 8
New
Jul 15
First Quarter
Jul 22
Full
Jul 29
Last Quarter

Hourly Weather History & Observations

Time (CDT) Temp. Dew Point Humidity Pressure Visibility Wind Dir Wind Speed Gust Speed Precip Events Conditions
12:15 AM 64.4 °F 59.0 °F 83% 29.94 in 10.0 mi NNW 9.2 mph - N/A   Mostly Cloudy
12:35 AM 62.6 °F 59.0 °F 88% 29.94 in 10.0 mi North 8.1 mph - N/A   Mostly Cloudy
12:55 AM 62.6 °F 59.0 °F 88% 29.94 in 10.0 mi NNW 9.2 mph - N/A   Mostly Cloudy
1:15 AM 62.6 °F 59.0 °F 88% 29.94 in 10.0 mi North 9.2 mph - N/A   Overcast
1:35 AM 62.6 °F 59.0 °F 88% 29.95 in 10.0 mi North 8.1 mph - N/A   Overcast
1:55 AM 62.6 °F 59.0 °F 88% 29.95 in 10.0 mi North 4.6 mph - N/A   Mostly Cloudy
2:15 AM 62.6 °F 59.0 °F 88% 29.94 in 10.0 mi North 3.5 mph - N/A   Scattered Clouds
2:35 AM 62.6 °F 60.8 °F 94% 29.94 in 10.0 mi North 8.1 mph - N/A   Clear
2:55 AM 62.6 °F 60.8 °F 94% 29.94 in 10.0 mi North 8.1 mph - N/A   Clear
3:15 AM 62.6 °F 60.8 °F 94% 29.94 in 10.0 mi North 9.2 mph - N/A   Clear
3:35 AM 62.6 °F 59.0 °F 88% 29.94 in 10.0 mi North 8.1 mph - N/A   Clear
3:55 AM 62.6 °F 57.2 °F 82% 29.94 in 10.0 mi North 9.2 mph - N/A   Clear
4:15 AM 62.6 °F 55.4 °F 77% 29.94 in 10.0 mi North 9.2 mph - N/A   Clear
4:35 AM 62.6 °F 55.4 °F 77% 29.94 in 10.0 mi North 8.1 mph - N/A   Clear
4:55 AM 60.8 °F 55.4 °F 82% 29.95 in 10.0 mi NNE 9.2 mph - N/A   Scattered Clouds
5:15 AM 60.8 °F 53.6 °F 77% 29.95 in 10.0 mi North 9.2 mph - N/A   Mostly Cloudy
5:35 AM 60.8 °F 51.8 °F 72% 29.95 in 10.0 mi North 10.4 mph - N/A   Scattered Clouds
5:55 AM 60.8 °F 50.0 °F 68% 29.95 in 10.0 mi North 10.4 mph - N/A   Clear
6:15 AM 60.8 °F 48.2 °F 63% 29.96 in 10.0 mi NNE 8.1 mph - N/A   Clear
6:35 AM 60.8 °F 46.4 °F 59% 29.96 in 10.0 mi NNE 8.1 mph - N/A   Clear
6:55 AM 60.8 °F 46.4 °F 59% 29.96 in 10.0 mi NNE 8.1 mph - N/A   Clear
7:15 AM 60.8 °F 46.4 °F 59% 29.97 in 10.0 mi NNE 6.9 mph - N/A   Clear
7:35 AM 60.8 °F 50.0 °F 68% 29.97 in 10.0 mi NNE 8.1 mph - N/A   Clear
7:55 AM 62.6 °F 50.0 °F 63% 29.98 in 10.0 mi North 10.4 mph - N/A   Clear
8:15 AM 60.8 °F 50.0 °F 68% 29.99 in 10.0 mi North 6.9 mph - N/A   Clear
8:35 AM 62.6 °F 51.8 °F 68% 29.99 in 10.0 mi NNE 9.2 mph - N/A   Clear
8:55 AM 64.4 °F 51.8 °F 64% 29.99 in 10.0 mi North 10.4 mph 16.1 mph N/A   Clear
9:15 AM 64.4 °F 53.6 °F 68% 29.99 in 10.0 mi North 10.4 mph - N/A   Clear
9:35 AM 68.0 °F 53.6 °F 60% 29.99 in 10.0 mi North 8.1 mph - N/A   Clear
9:55 AM 68.0 °F 55.4 °F 64% 29.99 in 10.0 mi NNE 11.5 mph - N/A   Clear
10:15 AM 69.8 °F 55.4 °F 60% 29.99 in 10.0 mi NNE 11.5 mph - N/A   Clear
10:35 AM 69.8 °F 57.2 °F 64% 29.99 in 10.0 mi NNE 12.7 mph - N/A   Clear
10:55 AM 71.6 °F 59.0 °F 64% 29.99 in 10.0 mi North 12.7 mph - N/A   Clear
11:15 AM 71.6 °F 59.0 °F 64% 29.99 in 10.0 mi NNE 13.8 mph - N/A   Clear
11:35 AM 71.6 °F 59.0 °F 64% 29.98 in 10.0 mi North 11.5 mph - N/A   Clear
11:55 AM 71.6 °F 59.0 °F 64% 29.99 in 10.0 mi NNE 15.0 mph - N/A   Scattered Clouds
12:15 PM 71.6 °F 59.0 °F 64% 29.99 in 10.0 mi NNE 15.0 mph - N/A   Mostly Cloudy
12:35 PM 73.4 °F 60.8 °F 65% 29.99 in 10.0 mi North 12.7 mph - N/A   Scattered Clouds
12:55 PM 71.6 °F 60.8 °F 69% 29.98 in 10.0 mi NNE 15.0 mph - N/A   Clear
1:15 PM 73.4 °F 60.8 °F 65% 29.97 in 10.0 mi North 12.7 mph 18.4 mph N/A   Clear
1:35 PM 75.2 °F 60.8 °F 61% 29.96 in 10.0 mi North 16.1 mph - N/A   Clear
1:55 PM 75.2 °F 60.8 °F 61% 29.96 in 10.0 mi NNE 12.7 mph 21.9 mph N/A   Scattered Clouds
2:15 PM 75.2 °F 59.0 °F 57% 29.96 in 10.0 mi NNE 17.3 mph 24.2 mph N/A   Mostly Cloudy
2:35 PM 75.2 °F 59.0 °F 57% 29.96 in 10.0 mi NNE 12.7 mph 25.3 mph N/A   Mostly Cloudy
2:55 PM 75.2 °F 57.2 °F 53% 29.97 in 10.0 mi NNE 17.3 mph 23.0 mph N/A   Mostly Cloudy
3:15 PM 75.2 °F 57.2 °F 53% 29.97 in 10.0 mi NE 16.1 mph 23.0 mph N/A   Mostly Cloudy
3:35 PM 75.2 °F 57.2 °F 53% 29.97 in 10.0 mi NNE 17.3 mph 20.7 mph N/A   Mostly Cloudy
3:55 PM 73.4 °F 57.2 °F 57% 29.97 in 10.0 mi North 15.0 mph 19.6 mph N/A   Mostly Cloudy
4:15 PM 75.2 °F 57.2 °F 53% 29.97 in 10.0 mi NNE 13.8 mph 21.9 mph N/A   Mostly Cloudy
4:35 PM 73.4 °F 57.2 °F 57% 29.97 in 10.0 mi NNE 16.1 mph 24.2 mph N/A   Mostly Cloudy
4:55 PM 75.2 °F 59.0 °F 57% 29.97 in 10.0 mi NNE 21.9 mph 26.5 mph N/A   Mostly Cloudy
5:15 PM 73.4 °F 59.0 °F 61% 29.98 in 10.0 mi NE 18.4 mph 24.2 mph N/A   Overcast
5:35 PM 71.6 °F 59.0 °F 64% 29.98 in 10.0 mi NE 17.3 mph 24.2 mph N/A   Overcast
5:55 PM 69.8 °F 57.2 °F 64% 29.99 in 10.0 mi NE 18.4 mph 26.5 mph N/A   Overcast
6:15 PM 69.8 °F 55.4 °F 60% 30.00 in 10.0 mi NE 20.7 mph 26.5 mph N/A   Mostly Cloudy
6:35 PM 69.8 °F 55.4 °F 60% 30.00 in 10.0 mi NE 16.1 mph 21.9 mph N/A   Mostly Cloudy
6:55 PM 69.8 °F 51.8 °F 53% 30.00 in 10.0 mi ENE 18.4 mph 28.8 mph N/A   Overcast
7:15 PM 69.8 °F 51.8 °F 53% 30.01 in 10.0 mi NE 16.1 mph 27.6 mph N/A   Overcast
7:35 PM 66.2 °F 53.6 °F 64% 30.02 in 10.0 mi NNE 9.2 mph - N/A Rain Light Rain
7:55 PM 68.0 °F 55.4 °F 64% 30.01 in 10.0 mi NNE 8.1 mph - N/A   Overcast
8:15 PM 66.2 °F 53.6 °F 64% 30.01 in 10.0 mi NNE 9.2 mph - N/A Rain Light Rain
8:35 PM 68.0 °F 51.8 °F 56% 30.01 in 10.0 mi NNE 8.1 mph - N/A   Overcast
8:55 PM 68.0 °F 51.8 °F 56% 30.01 in 10.0 mi NNE 8.1 mph - N/A   Overcast
9:15 PM 68.0 °F 51.8 °F 56% 30.02 in 10.0 mi NNE 9.2 mph - N/A   Overcast
9:35 PM 68.0 °F 50.0 °F 52% 30.03 in 10.0 mi NNE 10.4 mph - N/A   Overcast
9:55 PM 68.0 °F 50.0 °F 52% 30.03 in 10.0 mi NNE 10.4 mph - N/A   Overcast
10:15 PM 68.0 °F 50.0 °F 52% 30.03 in 10.0 mi NE 12.7 mph - N/A   Overcast
10:35 PM 68.0 °F 50.0 °F 52% 30.03 in 10.0 mi NE 11.5 mph - N/A   Overcast
10:55 PM 66.2 °F 50.0 °F 56% 30.03 in 10.0 mi NE 12.7 mph - N/A   Overcast
11:15 PM 66.2 °F 50.0 °F 56% 30.03 in 10.0 mi NE 9.2 mph - N/A   Overcast
11:35 PM 66.2 °F 50.0 °F 56% 30.03 in 10.0 mi NE 11.5 mph 16.1 mph N/A   Overcast
11:55 PM 64.4 °F 50.0 °F 59% 30.03 in 10.0 mi NE 11.5 mph - N/A   Overcast